Tracking 19638 objects as of 19-May-2019
HD Live streaming from Space Station
objects crossing your sky now

ORBCOMM FM 32

Track ORBCOMM FM 32 now!
10-day predictions
ORBCOMM FM 32 is classified as:


NORAD ID: 25982
Int'l Code: 1999-065C
Perigee: 789.6 km
Apogee: 794.6 km
Inclination: 45.0 °
Period: 100.6 minutes
Semi major axis: 7163 km
RCS: 0.8421 m2 (medium)
Launch date: December 4, 1999
Source: ORBCOMM (ORB)
Launch site: AIR FORCE EASTERN TEST RANGE (AFETR)
aabbcc
Your satellite tracking list
Your tracking list is empty




NASA's NSSDC Master Catalog

Two Line Element Set (TLE):
1 25982U 99065C   19138.88741564 -.00000018  00000-0  45293-4 0  9997
2 25982  45.0179 103.6914 0003486 151.5005 208.6032 14.32024430 16108
Source of the keplerian elements: AFSPC